Flag for Turkey Weather past 2 weeks in Bodrum, Turkey

Now
60 °F

Passing clouds.


Feels Like: 60 °F
Forecast: 60 / 65 °F
Wind: 10 mph from South

Location: Bodrum

Current Time: Mar 5, 2015 at 10:39:06 PM

Latest Report: Mar 5, 2015 at 8:00 PM


Visibility: 13 mi

Pressure: 30.14 "Hg

Humidity: 65%

Dew point: 48 °F

Location of BodrumLocation

Historic Weather in Bodrum — Graph

°F

Bodrum temperature yesterday

Maximum temperature yesterday: 65 °F (at 12:00 PM)
Minimum temperature yesterday: 53 °F (at 5:00 AM)
Average temperature yesterday: 59 °F

Past Weeks' High & Low Weather Summary

 TemperatureHumidityPressure
High66 °F (Mar 3, 3:00 PM)95% (Mar 2, 8:00 AM)30.27 "Hg (Mar 2, 8:00 AM)
Low34 °F (Feb 19, 2:00 AM)34% (Feb 21, 1:00 PM)29.71 "Hg (Feb 24, 3:00 PM)
Average56 °F64%30.01 "Hg
* Reported Feb 18 8:00 PM — Mar 5 8:00 PM, Bodrum, Weather by CustomWeather, © 2015

Note: Actual official high and low records may vary slightly from our data, if they occured in-between our weather recording intervals... More about our weather records

Advertising

Bodrum weather history for previous 24 hours

 ConditionsComfort  
Time TempWeatherWind HumidityBarometerVisibility
8:00 PM
Thu, Mar 5
60 °FPassing clouds.10 mph65%30.14 "Hg12 mi
7:00 PM61 °FPassing clouds.8 mph65%30.14 "Hg12 mi
6:00 PM62 °FPartly sunny.10 mph59%30.12 "Hg12 mi
5:00 PM63 °FPartly sunny.14 mph57%30.11 "Hg12 mi
4:00 PM64 °FScattered clouds.10 mph57%30.11 "Hg12 mi
3:00 PM66 °FSunny.10 mph47%30.12 "Hg12 mi
2:00 PM65 °FSunny.12 mph43%30.13 "Hg12 mi
1:00 PM64 °FSunny.9 mph44%30.15 "Hg12 mi
12:00 PM62 °FSunny.7 mph42%30.16 "Hg12 mi
11:00 AM61 °FSunny.6 mph54%30.17 "Hg12 mi
10:00 AM59 °FSunny.6 mph54%30.17 "Hg12 mi
9:00 AM57 °FSunny.1 mph46%30.16 "Hg12 mi
8:00 AM49 °FSunny.3 mph60%30.15 "Hg12 mi
5:00 AM48 °FClear.2 mph64%30.14 "Hg12 mi
2:00 AM51 °FPassing clouds.1 mph52%30.15 "Hg12 mi
11:00 PM
Wed, Mar 4
53 °FClear.8 mph46%30.17 "Hg12 mi
Weather by CustomWeather, © 2015

See weather overviewHow to use our weather pages